Volver al catálogo

STARLINK-33990

ActivoComunicacionesVLEO
NORAD 63840·PAYLOAD·🇺🇸 United States

Lanzado May 7, 2025 desde Cape Canaveral Space Force Station

Loading…

Próximos Pases (próximas 24 horas)

TLE

ActualizadoSource: CelesTrak SupGP

Época: Sep 14, 2026, 20:43 UTC

1 63840C 25093E   26257.86368056  .00013476  00000+0  48841-3 0  2579
2 63840  43.0033  89.4976 0001484 262.0622 123.9164 15.27552091    10

Sigue STARLINK-33990 en tiempo real con AllMySat

Download on the App Store